Weather History for TJSJ - June, 2013

Change the Weather History Date:

Sunday, June 30, 2013

  Actual Average Record
Temperature  
Mean Temperature 82 °F 84 °F  
Max Temperature 87 °F 89 °F 95 °F (1988)
Min Temperature 77 °F 78 °F 71 °F (1929)
Degree Days  
Heating Degree Days 0 0  
Month to date heating degree days 0 0  
Since 1 June heating degree days 0 0  
Since 1 July heating degree days 0 0  
Cooling Degree Days 17 18  
Month to date cooling degree days 516 549  
Year to date cooling degree days 2764 2714  
Since 1 June cooling degree days 516 549  
Growing Degree Days 32 (Base 50)    
Moisture  
Dew Point 74 °F    
Average Humidity 81    
Maximum Humidity 91    
Minimum Humidity 70    
Precipitation  
Precipitation 0.20 in 0.14 in 1.49 in (1925)
Month to date precipitation 11.29 4.41  
Year to date precipitation 35.82 23.09  
Sea Level Pressure  
Sea Level Pressure 30.00 in    
Wind  
Wind Speed 8 mph (ESE)    
Max Wind Speed 17 mph    
Max Gust Speed 22 mph    
Visibility 10 miles    
Events Rain    
T = Trace of Precipitation, MM = Missing Value Source: NWS Daily Summary

Daily Weather History Graph

Daily Weather History Graph

Search for Another Location

Airport or City:

Trip Planner

Search our weather history database for the weather conditions in past years. The results will help you decide how hot, cold, wet, or windy it might be!

Date:

Astronomy

Jun. 30, 2013 Rise Set
Actual Time 5:51 AM AST 7:04 PM AST
Civil Twilight 5:26 AM AST 7:28 PM AST
Nautical Twilight 4:58 AM AST 7:57 PM AST
Astronomical Twilight 4:28 AM AST 8:26 PM AST
Moon 12:07 AM AST 12:50 PM AST
Length of Visible Light 14h 01m
Length of Day
13h 13m
Last Quarter, 45% of the Moon is Illuminated
Jun 30
Last Quarter
Jul 8
New
Jul 15
First Quarter
Jul 22
Full
Jul 29
Last Quarter

Hourly Weather History & Observations

Time (AST) Temp. Heat Index Dew Point Humidity Pressure Visibility Wind Dir Wind Speed Gust Speed Precip Events Conditions
12:56 AM 81.0 °F 86.2 °F 73.9 °F 79% 29.99 in 10.0 mi ENE 11.5 mph - N/A   Scattered Clouds
1:56 AM 80.1 °F 85.1 °F 75.0 °F 85% 29.98 in 10.0 mi East 6.9 mph - 0.01 in   Scattered Clouds
2:56 AM 80.1 °F 85.1 °F 75.0 °F 85% 29.97 in 10.0 mi East 6.9 mph - N/A   Scattered Clouds
3:56 AM 80.1 °F 85.1 °F 75.0 °F 85% 29.96 in 10.0 mi ENE 8.1 mph - N/A   Scattered Clouds
4:56 AM 80.1 °F 85.1 °F 75.0 °F 85% 29.97 in 10.0 mi ENE 8.1 mph - N/A   Scattered Clouds
5:56 AM 79.0 °F - 75.0 °F 88% 29.98 in 10.0 mi East 4.6 mph - N/A   Scattered Clouds
6:56 AM 80.1 °F 85.1 °F 75.0 °F 85% 30.00 in 10.0 mi SE 4.6 mph - 0.00 in Rain Light Rain
7:56 AM 80.1 °F 85.8 °F 77.0 °F 90% 30.00 in 10.0 mi ESE 4.6 mph - 0.17 in   Mostly Cloudy
8:56 AM 78.1 °F - 73.9 °F 87% 30.01 in 10.0 mi Calm Calm - 0.02 in   Mostly Cloudy
9:56 AM 81.0 °F 87.3 °F 75.9 °F 85% 30.02 in 10.0 mi ESE 5.8 mph - 0.00 in   Mostly Cloudy
10:56 AM 84.0 °F 91.9 °F 75.0 °F 74% 30.00 in 10.0 mi East 16.1 mph 20.7 mph N/A   Scattered Clouds
11:56 AM 84.9 °F 93.3 °F 75.0 °F 72% 30.00 in 10.0 mi East 17.3 mph 21.9 mph N/A   Scattered Clouds
12:56 PM 82.0 °F 87.9 °F 73.9 °F 76% 29.99 in 10.0 mi ESE 9.2 mph 16.1 mph 0.00 in   Scattered Clouds
1:56 PM 84.9 °F 91.4 °F 73.0 °F 67% 29.98 in 10.0 mi East 11.5 mph - N/A   Scattered Clouds
2:56 PM 80.1 °F 85.1 °F 75.0 °F 85% 29.98 in 10.0 mi SE 4.6 mph - 0.00 in   Mostly Cloudy
3:56 PM 82.0 °F 87.9 °F 73.9 °F 76% 29.97 in 9.0 mi ESE 8.1 mph - N/A   Mostly Cloudy
4:56 PM 82.0 °F 87.4 °F 73.0 °F 74% 29.96 in 10.0 mi South 3.5 mph - 0.00 in   Mostly Cloudy
5:56 PM 82.9 °F 88.8 °F 73.0 °F 72% 29.97 in 10.0 mi SE 4.6 mph - N/A   Mostly Cloudy
6:56 PM 82.0 °F 87.9 °F 73.9 °F 76% 29.99 in 10.0 mi East 11.5 mph - N/A   Scattered Clouds
7:56 PM 80.1 °F 84.2 °F 73.0 °F 79% 30.01 in 10.0 mi East 9.2 mph - N/A   Mostly Cloudy
8:56 PM 80.1 °F 84.2 °F 73.0 °F 79% 30.04 in 10.0 mi East 5.8 mph - N/A   Scattered Clouds
9:56 PM 80.1 °F 83.8 °F 72.0 °F 76% 30.04 in 10.0 mi ESE 3.5 mph - N/A   Scattered Clouds
10:56 PM 80.1 °F 84.2 °F 73.0 °F 79% 30.05 in 10.0 mi ESE 4.6 mph - N/A   Scattered Clouds
11:56 PM 80.1 °F 84.2 °F 73.0 °F 79% 30.04 in 10.0 mi Calm Calm - N/A   Partly Cloudy